Regional Weather Roundup
Issued by NWS Wakefield, VA

Home | Current Version | Previous Version | Graphics & Text | Print | Product List | Glossary On
Versions: 1 2 3 4 5 6 7 8 9 10 11 12 13 14 15 16 17 18 19 20 21 22 23 24 25 26 27 28 29 30 31 32 33 34 35 36 37 38 39 40 41 42 43 44 45 46 47 48 49 50
000
ASUS41 KAKQ 291010
RWRAKQ

REGIONAL WEATHER ROUNDUP
NATIONAL WEATHER SERVICE WAKEFIELD VA
600 AM EDT TUE JUL 29 2014

Note: "fair" indicates few or no clouds below 12,000 feet with no
significant weather and/or obstructions to visibility. * = Denotes
station may not report precipitation (e.g., rain,snow,etc.),
thunder or fog.

VAZ042-051-052>054-056-291100-
NORTHERN VIRGINIA

CITY           SKY/WX    TMP DP  RH WIND       PRES   REMARKS
WASH NATIONAL  PTCLDY    66  54  65 NW10      29.90R
DULLES         PTCLDY    58  51  78 NW7       29.92R
FORT BELVOIR   MOCLDY    64  54  70 NW7       29.91R
QUANTICO       CLEAR     62  53  72 NW6       29.92R
FREDERICKSBRG* CLEAR     63  55  75 CALM      29.91R
STAFFORD*      CLEAR     57  57 100 NW3       29.95R
WARRENTON      CLEAR     57  56  97 CALM      29.92R
CULPEPER*      CLEAR    N/A N/A N/A NW3       29.93R
MANASSAS*      NOT AVBL
LEESBURG*      CLEAR     59  54  82 NW7       29.92R
WINCHESTER     CLEAR     55  50  82 NW6       29.94R
$$

VAZ048-049-060>072-079>083-291100-
CENTRAL AND SOUTH CENTRAL VIRGINIA...AND NORTH CENTRAL NORTH CAROLINA

CITY           SKY/WX    TMP DP  RH WIND       PRES   REMARKS
RICHMOND       MOCLDY    66  56  70 N6        29.91R
CHESTERFIELD*  CLOUDY    64  48  55 N3        29.93R
HANOVER        PTCLDY    62  54  74 VRB3      29.93R
TAPPAHANNOCK*  CLEAR     62  55  79 CALM      29.92R
CHARLOTTSVILLE CLEAR     59  50  72 NW6       29.93R
ORANGE*        CLEAR     55  52  88 CALM      29.94R
LOUISA*        MOCLDY    54  52  94 N3        29.92R
FARMVILLE*     PTCLDY    59  54  82 CALM      29.92R
SOUTH HILL*    CLOUDY    64  61  88 N3        29.98R
ROANOKE RAPIDS NOT AVBL
RALEIGH        MOCLDY    66  57  72 CALM      29.92R
$$

VAZ088>098-291100-
SOUTHEAST VIRGINIA

CITY           SKY/WX    TMP DP  RH WIND       PRES   REMARKS
NORFOLK        PTCLDY    70  60  70 VRB3      29.88R
VIRGINIA BEACH MOCLDY    70  62  76 NW6       29.87R
NORFOLK NAVAL  PTCLDY    69  60  73 NW9       29.90R
WEST POINT*    PTCLDY    67  58  72 NW3       29.91R
NEWPORT NEWS   CLEAR     68  59  73 NW5       29.89R
LANGLEY AFB    CLEAR     67  60  80 NW7       29.88R
FORT EUSTIS    PTCLDY    68  58  69 N9        29.88R
WILLIAMSBURG*  MOCLDY    66  61  82 N5        29.90R
FRANKLIN*      CLEAR     61  61 100 CALM      29.90R
WAKEFIELD      PTCLDY    63  57  81 CALM      29.91R
$$

VAZ020-022-025-037-045-291100-
WESTERN AND SOUTHWEST VIRGINIA

CITY           SKY/WX    TMP DP  RH WIND       PRES   REMARKS
STAUNTON*      CLEAR     51  48  90 CALM      29.96R
HOT SPRINGS VA PTCLDY    49  47  92 NW5       30.02R
LYNCHBURG      CLEAR     57  54  89 CALM      29.96R
DANVILLE       CLOUDY    64  57  78 CALM      29.93R
MARTINSVILLE   MOCLDY    56  55  97 CALM      29.98R
ROANOKE        CLOUDY    60  55  83 CALM      29.97R
BLACKSBURG     CLOUDY    57  57 100 CALM      30.00R
DUBLIN*        CLOUDY    62  59  91 SW3       30.00R
MARION*        CLOUDY   N/A N/A N/A SW5       30.03R
HILLSVILLE*    CLOUDY    58  55  89 NW8       30.00R
RICHLANDS*     PTSUNNY   60  57  90 W3        30.01S
WISE*          MOCLDY    57  55  94 NW5       30.03S
ABINGDON*      MOCLDY    60  58  94 W3        30.01R
$$

MDZ021>025-VAZ099-100-291100-
SOUTHERN MARYLAND AND THE DELMARVA PENINSULA

CITY           SKY/WX    TMP DP  RH WIND       PRES   REMARKS
PATUXENT RIVER PTCLDY    64  57  78 W9        29.88R
BAY BRIDGE APT   N/A     66  55  68 NW9       29.87R
LEONARDTOWN    CLEAR     59  55  88 W3        29.91R
DOVER          CLEAR     63  58  85 NW9       29.84R
GEORGETOWN     CLEAR     64  59  83 VRB3      29.87R
EASTON         PTCLDY    66  61  82 CALM      29.91R
CAMBRIDGE      MOCLDY    70  59  68 NE3       29.87R
SALISBURY      CLEAR     66  59  77 MISG        N/A
OCEAN CITY     CLEAR     63  60  90 NW3       29.86R
WALLOPS ISLAND CLEAR     64  61  90 NW5       29.87R
ACCOMACK*        N/A     68  59  73 N3        29.86R
$$

NCZ012>017-030>032-291100-
EASTERN NORTH CAROLINA

CITY           SKY/WX    TMP DP  RH WIND       PRES   REMARKS
ELIZABETH CITY MOCLDY    67  60  78 NW6       29.88R
AHOSKIE*       CLEAR     60  58  94 CALM      29.91R
EDENTON*       MOCLDY    66  60  78 N5        29.89R
CURRITUCK*     CLEAR     66  58  75 CALM      29.89R
KILL DEVIL HLS MOCLDY    72  63  72 N3        29.86R
MANTEO         NOT AVBL
CAPE HATTERAS  PTCLDY    77  65  66 N5        29.86R
GOLDSBORO      CLOUDY    69  62  79 N5        29.89R
WASHINGTON     MOCLDY    66  61  84 N3        29.89R
GREENVILLE     CLOUDY    66  61  82 CALM      29.93R
NEW BERN       CLEAR     70  62  76 N5        29.89R
WILMINGTON     PTCLDY    69  63  81 NE6       29.87R
$$

VAZ048-291100-
ELSEWHERE

CITY           SKY/WX    TMP DP  RH WIND       PRES   REMARKS
HARRISBURG PA  PTCLDY    61  56  83 NW5       29.87R
BALTIMORE      PTCLDY    60  56  86 W3        29.88R
ANNAPOLIS      CLEAR     64  58  80 W6        29.88R
ANDREWS AFB    MOCLDY    64  54  69 NW13      29.90R
WILMINGTON DE  CLEAR     60  56  86 NW6       29.86R
PHILADELPHIA   PTCLDY    64  55  72 NW7       29.85R
WILDWOOD NJ*   PTCLDY    66  55  68 N6        29.86R
ATLANTIC CITY  CLEAR     61  57  87 W3        29.84R
HENDERSON NC   MOCLDY    62  56  79 NE3       29.93R
GREENSBORO     CLOUDY    62  56  80 CALM      29.95R
ROCKY MOUNT    CLOUDY    67  59  75 N5        29.91R
FAYETTEVILLE   MOCLDY    70  59  68 N7        29.90R
CHARLOTTE      MOCLDY    62  56  80 CALM      29.95R
$$

VAZ100-291100-
MARINE

STATION/POSITION TIME  TEMP    WIND        PRES    WAVE   SWELL
                       AIR SEA DIR/SP/G            HT/PER HT/PER
                 (UTC) (F)     (DEG/KT/KT) (MB)    (FT/S) (FT/S)
44066 TX TWR #4  1000   70 74  310/ 10/ 14 1008.5R   6/ 6   5/ 6
CAPE MAY NJ      1000   68 78  350/  7/ 13 1010.1R
LEWES DE         1000   69 72  330/ 12/ 14 1010.3R
15NM E FENWICK I 1000   69 73              1010.7R   3/ 4
OCEAN-CITY-INLET 1000   67 70  340/  8/ 11 1010.4R
WACHAPREAGUE VA  1000   68 79  360/  4/  5 1011.1R
THOMAS POINT MD  1000   65 78  310/ 12/ 13 1012.2R
GOOSES REEF MD   1000   69     340/ 14/ 19 1012.0R
COVE POINT MD    1000   67     330/  9/ 13 1011.4R
SOLOMONS ISLAND  1000      80                N/A
BISHOPS HEAD MD  1000   67 76  330/  6/  8 1011.0R
PINEY POINT MD   1000          340/ 15/ 17   N/A
POTOMAC MD       1000   69     340/ 14/ 16 1011.1R
CAMBRIDGE MD     1000   70 78  330/ 10/ 14 1010.9R
LEWISETTA VA     1000   69 78  320/  9/ 12 1011.8R
RAPPAHANNOCK LGT 1000          340/ 15/ 17 1011.8R
STINGRAY PT      1000   70     330/ 12/ 14 1012.3R
YORK RVR RNG VA  1000   69     330/ 12/ 14 1011.2R
YORKTOWN VA      1000   69 79  320/ 11/ 13 1011.7R
JAMESTOWN VA     1000   67     360/  6/  8   N/A
DOMINION TERM VA 1000   70     350/  8/ 11 1012.0R
KIPTOPEKE VA     1000      81   30/  4/  5   N/A
CHES BAY BRIDGE  1000   72 78  320/ 12/ 15 1011.0R
CAPE HENRY VA    1000   73     330/ 13/ 15 1010.2R
WILLOUBY STN VA  1000          330/ 11/ 12 1011.2R
S CRANEY ISL VA  1000          300/  7/ 10 1011.9S
CAPE HENRY BUOY  1000      76                N/A     3/ 8
1ST LANDING BUOY 1000   73     340/ 12/ 16 1011.2R
CAPE CHARLES BUO 1000      73                N/A     2/ 8
OFFSHORE WE BUOY 1000      77                N/A     3/ 4
64NM E OF VA BCH 1000   75 78  350/ 12/ 14 1010.4R   3/ 5   2/ 7
DUCK PIER NC     1000   71 70  330/  8/ 11 1010.5R
44056 DUCK FRF   0900                        N/A     3/ 4
OREGON INLET NC  1000   74 79  350/  8/ 11 1010.9F
HATTERAS NC      1000   78 81  360/ 10/ 12 1011.2R
DIAMOND SHLS NC  1000          VRB 10/ 12  1010.5R   3/ 8   3/ 8
CAPE LOOKOUT NC  0900   76     360/  9/ 11 1010.3S
$$



USA.gov is the U.S. government's official web portal to all federal, state and local government web resources and services.